STARLINK-2166 (48558 NORAD) Tracking and Keplerian Element Data

This shows tracking and keplerian element data for the satellite.

Feedback or suggestion? Click here.




ElementValue
Catalog48558
NameSTARLINK-2166
Epoch Orbit1245
Epoch Day215.13252679
Epoch Year2021
RAAN111.4347
Inclination53.0563
Eccentricity0.0002129
Argument of Perigee88.6452
Mean Anonmoly271.4781
Mean Motion15.06400142
Decay Rate7.13E-06
L11 48558U 21041F 21215.13252679 .00000713 00000-0 66771-4 0 9996
L22 48558 53.0563 111.4347 0002129 88.6452 271.4781 15.06400142 12457

Live tracking and technical data element details for STARLINK-2166 (NORAD 48558). STARLINK-2166 can be tracked NOW for your location showing map with azimuth and elevation plus other details from your city location.

Track the satellite on the map from your city or location and see movement details for azimuth, elevation, latitude, longitude, range, height, and movement on the map or in text.







IsCatalogInMostPopularTable: catalog: 48558, numindb: 21
Update: records affected: 1



GetName: 48558 STARLINK-2166

Hit Count: updated at: Wed, 04 Aug 2021 00:54:52 GMT